Weather in Davenda

Russia / Zabaykalsky Krai     53°33′13″N   119°19′03″E
temp.,
°C
wind,
m/s
gust,
m/s
humid.,
%
clouds,
%
prec.,
mm/h
press.,
hPa
HPBL,
m
11 august, thu
thu1100:00+10nw31094100 0.0 1005344
03:00+10nw249194 0.0 100599
06:00+10nw2393100 0.0 100550
09:00+16nw266598 0.0 1005556
12:00+19nnw3554100 0.1 10041707
15:00+20nnw344955 0.6 10041611
18:00+17ne236484 0.1 1004119
21:00+13e118398 0.3 100610
12 august, fri
fri1200:00+13ssw0085100 0.0 100610
03:00+12w1188100 0.1 100610
06:00+11nnw1197100 0.9 100612
09:00+12nne0198100 2.3 100653
12:00+13ese1195100 0.9 1006251
15:00+13ene1194100 1.3 1005184
18:00+16ne127777 0.0 1005552
21:00+11n119533 0.3 100611
13 august, sat
sat1300:00+10nnw219640 0.0 100715
03:00+10nw119578 0.0 100619
06:00+10nw119498 0.0 100618
09:00+13nw1189100 0.0 1007120
12:00+17w116453 0.0 1006637
15:00+22wnw124322 0.0 10041899
18:00+17w116791 0.1 100412
21:00+13nnw11822 0.1 100611
14 august, sun
sun1400:00+11nnw11874 0.0 100610
03:00+10nne11914 0.0 100610
06:00+9nnw11937 0.0 100610
09:00+16ese116676 0.0 1005311
12:00+21se215099 0.0 10031177
15:00+22ese214197 0.0 10022159
18:00+18ese1167100 0.0 100223
21:00+15n1178100 0.0 100313
15 august, mon
mon1500:00+15nne2176100 0.1 100419
03:00+11nne219064 0.1 100515
06:00+11n219014 0.0 100514
09:00+18ne11644 0.0 1005344
12:00+23se014611 0.1 10041692
15:00+21ese115699 0.1 1002445
18:00+18nw016799 0.0 100311
21:00+16nnw116972 0.0 100311